[[{"header":{"parameterUnit":"m.s-1","parameterCategory":1,"la1":30.2991,"la2":30.254,"lo1":-89.0895,"lo2":-89.0444,"dy":0.0017,"dx":0.0017,"nx":28,"ny":28,"refTime":"2024-12-04T09:00:00:Z","depth":0,"parameterNumber":2,"parameterNumberName":"U-component_of_WINDS"},"data":[0,0,0,0,0,0,0,0,0,0,0,0,0,0,0,0,0,0,0,0,0,0,0,0,0,0,0,0,0,0,0,0,0,0,0,0,0,0,0,0,0,0,0,0,0,0,0,0,0,0,0,0,0,0,0,0,0,0,-4.017,-4.017,0,-4.0199,-4.02,-4.02,-4.0055,-4.0051,-4.0046,-4.0042,-4.0073,-4.0078,-4.0083,0,0,0,0,0,0,0,0,0,0,0,0,0,-3.9987,-3.9992,-4.017,-4.017,-4.0171,-4.0199,-4.02,-4.02,-4.0056,-4.005,-4.0045,-4.0041,-4.0072,-4.0077,-4.0083,0,0,0,0,0,0,0,0,0,0,0,0,0,-4.0047,-3.9993,-4.017,-4.0102,-4.0096,-4.0199,-4.02,-4.02,-4.0057,-4.005,-4.0044,-4.0038,-4.007,-4.0077,-4.0084,-4.0254,0,0,-4.0106,-4.0109,0,0,0,0,0,0,0,0,-4.0044,-4.0054,-4.0111,-4.0107,-4.01,-4.0117,-4.0146,-4.0218,-4.0058,-4.0072,-4.0042,-4.0035,-4.0093,-4.0098,-4.0117,-4.0255,-4.0257,-4.0106,-4.0111,-4.0114,-4.0116,0,0,0,0,0,0,0,-4.004,-4.0052,-4.0181,-4.0112,-4.0106,-4.007,-4.0071,-4.0159,-4.0117,-4.007,-4.006,-4.0065,-4.0089,-4.0111,-4.0117,-4.0257,-4.0106,-4.0112,-4.0117,-4.012,-4.0534,-4.0541,0,0,0,0,0,0,-4.0045,-4.0049,-4.018,-4.0182,-4.0056,-4.0078,-4.008,-4.0118,-4.0116,-4.011,-4.007,-4.0058,-4.0102,-4.0109,-4.0117,-4.0315,-4.0114,-4.012,-4.0124,-4.0527,-4.0536,-4.0543,0,0,0,0,0,0,-4.0041,-4.0058,-4.0179,-4.0113,-4.0126,-4.0088,-4.0132,-4.0122,-4.0144,-4.0116,-4.0108,-4.0101,-4.0097,-4.0107,-4.022,-4.0314,-4.0123,-4.013,-4.052,-4.053,-4.0539,-4.0713,0,0,0,0,0,0,-4.0037,-4.0057,-4.0122,-4.0115,-4.013,-4.0283,-4.0138,-4.0127,-4.0156,-4.0141,-4.0142,-4.0137,-4.0093,-4.0211,-4.0228,-4.032,-4.0135,-4.0511,-4.0524,-4.0536,-4.0698,-4.0727,-4.0752,0,0,0,0,0,-4.0031,-4.017,-4.0126,-4.0143,-4.021,-4.0288,-4.0296,-4.0243,-4.0164,-4.0229,-4.0211,-4.0137,-4.0301,-4.0224,-4.0241,-4.0338,-4.0505,-4.052,-4.0535,-4.0686,-4.0722,-4.0752,0,0,0,0,0,0,-4.0189,-4.0168,-4.0119,-4.026,-4.0277,-4.0264,-4.0343,-4.0283,-4.0322,-4.0306,-4.0238,-4.024,-4.0364,-4.0362,-4.0276,-4.0501,-4.0389,-4.0409,-4.0498,-4.0532,-4.0558,-4.0556,-4.0141,0,0,0,0,0,-4.024,-4.0306,-4.0284,-4.0411,-4.0422,-4.0382,-4.0414,-4.0371,-4.0386,-4.0393,-4.0383,-4.04,-4.0455,-4.0493,-4.0543,-4.0697,-4.0695,-4.0772,-4.0799,-4.0821,-4.0839,-4.0919,-4.0953,-4.0593,-4.0593,-4.0592,0,0,-4.0347,-4.0344,-4.039,-4.0443,-4.0451,-4.052,-4.0389,-4.0468,-4.0518,-4.0404,-4.051,-4.0504,-4.0519,-4.0653,-4.0712,-4.0655,-4.0938,-4.0841,-4.0859,-4.0864,-4.0938,-4.0973,-4.1003,-4.0603,-4.0601,-4.06,0,0,-4.0577,-4.0582,-4.0687,-4.0698,-4.0711,-4.0683,-4.0709,-4.0704,-4.0696,-4.0801,-4.0716,-4.0775,-4.0872,-4.0886,-4.0906,-4.1139,-4.1072,-4.1158,-4.1298,-4.1377,-4.1406,-4.143,-4.1513,-4.1543,-4.1175,-4.1176,-4.1176,0,-4.0708,-4.0809,-4.0749,-4.0834,-4.0859,-4.0759,-4.0865,-4.0878,-4.0907,-4.0927,-4.0863,-4.0982,-4.0985,-4.112,-4.1177,-4.1197,-4.1223,-4.1157,-4.1406,-4.1431,-4.1453,-4.1531,-4.1562,-4.1186,-4.1185,-4.1184,-4.1183,0,-4.0969,-4.1041,-4.1124,-4.1154,-4.1189,-4.1284,-4.1238,-4.1281,-4.1235,-4.1213,-4.1321,-4.1321,-4.1368,-4.1397,-4.1354,-4.1526,-4.149,-4.1418,-4.1304,-4.1498,-4.157,-4.16,-4.12,-4.1197,-4.1194,-4.1191,0,0,-4.13,-4.1295,-4.1327,-4.1338,-4.1346,-4.1399,-4.149,-4.1535,-4.1572,-4.1596,-4.1669,-4.1753,-4.1685,-4.1708,-4.1665,-4.1734,-4.1918,-4.1652,-4.1652,-4.1701,-4.2107,-4.2162,-4.2197,-4.1874,-4.1879,-4.1884,-4.2106,0,-4.1524,-4.1677,-4.1625,-4.1781,-4.1846,-4.1751,-4.1829,-4.1842,-4.1824,-4.1876,-4.1856,-4.1916,-4.1823,-4.1836,-4.19,-4.1882,-4.1999,-4.1866,-4.1941,-4.1944,-4.194,-4.2235,-4.2293,-4.2502,-4.2134,-4.2138,-4.2142,0,-4.1806,-4.184,-4.2003,-4.1997,-4.2022,-4.2094,-4.213,-4.2182,-4.2194,-4.2176,-4.2201,-4.2143,-4.223,-4.2116,-4.2235,-4.2146,-4.2173,-4.2169,-4.2176,-4.218,-4.2055,-4.2247,-4.2568,-4.2599,-4.2186,-4.2182,-4.2179,0,-4.203,-4.2117,-4.2224,-4.2238,-4.2235,-4.2287,-4.2288,-4.2294,-4.2324,-4.2356,-4.2375,-4.2418,-4.2441,-4.2475,-4.2429,-4.2351,-4.2555,-4.2438,-4.2542,-4.2543,-4.2589,-4.2586,-4.2919,-4.2608,-4.2608,-4.2607,-4.2607,0,-4.2286,-4.2388,-4.2325,-4.2391,-4.2503,-4.2442,-4.2554,-4.2545,-4.2551,-4.2613,-4.2534,-4.2594,-4.2531,-4.2585,-4.255,-4.2653,-4.2665,-4.2652,-4.2642,-4.2659,-4.2661,-4.2676,-4.266,-4.2616,-4.2614,-4.2612,-4.2611,0,-4.2555,-4.2516,-4.2627,-4.2615,-4.2614,-4.2697,-4.2686,-4.2747,-4.2723,-4.2803,-4.2818,-4.2781,-4.2841,-4.2799,-4.2859,-4.2835,-4.297,-4.294,-4.2966,-4.2958,-4.3064,-4.3054,-4.3417,-4.3461,-4.3124,-4.3127,-4.313,0,-4.272,-4.2796,-4.2792,-4.2828,-4.2834,-4.2893,-4.2923,-4.2866,-4.29,-4.2919,-4.2978,-4.303,-4.3069,-4.3169,-4.3148,-4.3193,-4.3162,-4.3286,-4.3168,-4.3183,-4.3163,-4.3158,-4.3165,-4.331,-4.3314,-4.3317,-4.332,0,-4.3017,-4.2993,-4.304,-4.308,-4.3118,-4.3147,-4.3169,-4.3203,-4.3145,-4.3188,-4.3248,-4.3278,-4.3339,-4.3392,-4.3429,-4.3429,-4.3365,-4.3357,-4.3383,-4.3401,-4.3413,-4.3407,-4.303,-4.3349,-4.3346,-4.3344,-4.3342,-4.3341,-4.3238,-4.3301,-4.3307,-4.3361,-4.3372,-4.3395,-4.345,-4.3433,-4.3482,-4.3526,-4.349,-4.3561,-4.357,-4.3612,-4.3621,-4.3676,-4.3625,-4.3663,-4.3673,-4.3683,-4.3697,-4.3405,-4.3682,-4.3681,-4.368,-4.368,-4.3679,0,-4.3529,-4.3529,-4.3579,-4.3612,-4.3655,-4.359,-4.3612,-4.3651,-4.3715,-4.3729,-4.3768,-4.3836,-4.3887,-4.387,-4.3915,-4.3962,-4.3933,-4.3975,-4.3971,-4.3972,-4.3741,-4.3713,-4.3997,-4.3997,-4.3997,-4.3997,-4.3997,-4.3997,-4.3686,-4.3789,-4.3767,-4.3874,-4.3872,-4.3941,-4.3958,-4.3979,-4.3989,-4.4068,-4.411,-4.4098,-4.4099,-4.4143,-4.4187,-4.418,-4.42,-4.4253,-4.4235,-4.402,-4.3988,-4.3958,-4.3932,-4.4258,-4.4258,-4.4461,-4.4463,-4.4465]},{"header":{"parameterUnit":"m.s-1","parameterCategory":1,"la1":30.2991,"la2":30.254,"lo1":-89.0895,"lo2":-89.0444,"dy":0.0017,"dx":0.0017,"nx":28,"ny":28,"refTime":"2024-12-04T09:00:00:Z","depth":0,"parameterNumber":3,"parameterNumberName":"V-component_of_WINDS"},"data":[0,0,0,0,0,0,0,0,0,0,0,0,0,0,0,0,0,0,0,0,0,0,0,0,0,0,0,0,0,0,0,0,0,0,0,0,0,0,0,0,0,0,0,0,0,0,0,0,0,0,0,0,0,0,0,0,0,0,-1.6158,-1.6159,0,-1.619,-1.619,-1.6191,-1.6203,-1.6203,-1.6203,-1.6203,-1.6235,-1.6236,-1.6237,0,0,0,0,0,0,0,0,0,0,0,0,0,-1.6107,-1.6108,-1.6158,-1.6159,-1.6159,-1.619,-1.619,-1.6191,-1.6203,-1.6203,-1.6203,-1.6203,-1.6235,-1.6236,-1.6237,0,0,0,0,0,0,0,0,0,0,0,0,0,-1.6133,-1.6108,-1.6158,-1.6169,-1.617,-1.619,-1.619,-1.6191,-1.6203,-1.6203,-1.6203,-1.6203,-1.6234,-1.6236,-1.6237,-1.6248,0,0,-1.6241,-1.6242,0,0,0,0,0,0,0,0,-1.6131,-1.6135,-1.6167,-1.6168,-1.617,-1.6193,-1.6184,-1.621,-1.6203,-1.6191,-1.6203,-1.6203,-1.6221,-1.6223,-1.623,-1.625,-1.6251,-1.6241,-1.6242,-1.6243,-1.6243,0,0,0,0,0,0,0,-1.613,-1.6133,-1.6171,-1.6167,-1.6169,-1.6172,-1.6175,-1.6189,-1.6206,-1.6192,-1.6193,-1.6196,-1.6222,-1.6228,-1.623,-1.6252,-1.6241,-1.6243,-1.6243,-1.6244,-1.628,-1.628,0,0,0,0,0,0,-1.6126,-1.6132,-1.617,-1.6172,-1.615,-1.6173,-1.6177,-1.6185,-1.6206,-1.6209,-1.6196,-1.6197,-1.6226,-1.6229,-1.6232,-1.6245,-1.6243,-1.6244,-1.6245,-1.628,-1.628,-1.628,0,0,0,0,0,0,-1.6125,-1.6129,-1.6169,-1.6152,-1.6157,-1.6174,-1.6183,-1.6186,-1.6193,-1.621,-1.6213,-1.62,-1.6226,-1.623,-1.6244,-1.6246,-1.6245,-1.6246,-1.628,-1.628,-1.628,-1.6272,0,0,0,0,0,0,-1.6123,-1.6129,-1.6134,-1.6152,-1.6158,-1.618,-1.6184,-1.6187,-1.6195,-1.6196,-1.6214,-1.6217,-1.6226,-1.6241,-1.6245,-1.6248,-1.6247,-1.628,-1.628,-1.628,-1.6272,-1.6272,-1.6272,0,0,0,0,0,-1.6122,-1.6131,-1.6134,-1.6139,-1.6165,-1.6181,-1.6184,-1.6195,-1.6195,-1.62,-1.621,-1.6216,-1.6245,-1.6243,-1.6247,-1.625,-1.628,-1.628,-1.628,-1.6272,-1.6272,-1.6272,0,0,0,0,0,0,-1.6113,-1.6133,-1.6137,-1.6153,-1.6165,-1.6183,-1.6189,-1.6195,-1.6207,-1.6207,-1.622,-1.6224,-1.6236,-1.6245,-1.6241,-1.6261,-1.6263,-1.6264,-1.6255,-1.6255,-1.6255,-1.6253,-1.6248,0,0,0,0,0,-1.6112,-1.6124,-1.6141,-1.6153,-1.6159,-1.6173,-1.618,-1.6187,-1.62,-1.6206,-1.6217,-1.6229,-1.6241,-1.6249,-1.6261,-1.6273,-1.6277,-1.6278,-1.6277,-1.6277,-1.6278,-1.6284,-1.6284,-1.6281,-1.6281,-1.6281,0,0,-1.6112,-1.6125,-1.6131,-1.6151,-1.6162,-1.6173,-1.6177,-1.6189,-1.6197,-1.6207,-1.6221,-1.623,-1.6244,-1.6257,-1.6263,-1.6264,-1.6279,-1.6278,-1.6277,-1.6278,-1.6284,-1.6285,-1.6285,-1.6282,-1.6282,-1.6281,0,0,-1.6117,-1.6128,-1.6139,-1.6148,-1.6164,-1.6173,-1.6175,-1.6192,-1.6198,-1.6212,-1.6219,-1.6228,-1.6249,-1.6258,-1.6266,-1.6272,-1.6277,-1.6276,-1.6275,-1.628,-1.628,-1.6281,-1.6282,-1.6283,-1.6276,-1.6276,-1.6276,0,-1.6115,-1.6132,-1.6143,-1.6154,-1.6162,-1.6172,-1.6181,-1.619,-1.6209,-1.6214,-1.6215,-1.6239,-1.625,-1.6264,-1.6266,-1.6272,-1.6274,-1.6274,-1.628,-1.628,-1.628,-1.6282,-1.6282,-1.6276,-1.6276,-1.6276,-1.6276,0,-1.6128,-1.614,-1.6146,-1.6163,-1.6172,-1.6182,-1.6194,-1.6201,-1.6207,-1.6216,-1.6229,-1.6241,-1.6255,-1.6259,-1.6265,-1.6274,-1.6274,-1.6277,-1.6279,-1.628,-1.6282,-1.6282,-1.6275,-1.6276,-1.6276,-1.6276,0,0,-1.613,-1.6151,-1.6153,-1.616,-1.6177,-1.6186,-1.6196,-1.6209,-1.6215,-1.6226,-1.6235,-1.6251,-1.6253,-1.6262,-1.6269,-1.6274,-1.6277,-1.6276,-1.6276,-1.6275,-1.6286,-1.6283,-1.6284,-1.628,-1.628,-1.628,-1.6284,0,-1.6136,-1.6155,-1.6164,-1.6179,-1.6189,-1.6197,-1.6206,-1.6216,-1.6224,-1.6233,-1.6242,-1.6253,-1.6256,-1.626,-1.6266,-1.6275,-1.6279,-1.6275,-1.6287,-1.6288,-1.6283,-1.6285,-1.6282,-1.6286,-1.6285,-1.6285,-1.6285,0,-1.6147,-1.6158,-1.6173,-1.6187,-1.6192,-1.6199,-1.6211,-1.622,-1.6232,-1.6237,-1.6246,-1.6252,-1.6262,-1.6263,-1.6276,-1.6274,-1.6279,-1.6284,-1.6284,-1.6286,-1.6287,-1.6286,-1.6287,-1.6288,-1.6287,-1.6287,-1.6286,0,-1.6145,-1.6164,-1.6175,-1.6181,-1.6198,-1.6203,-1.621,-1.6221,-1.6228,-1.6238,-1.6243,-1.6254,-1.626,-1.6269,-1.6278,-1.6278,-1.629,-1.6292,-1.6294,-1.6294,-1.6297,-1.6296,-1.6299,-1.6301,-1.6301,-1.6301,-1.6301,0,-1.6152,-1.6161,-1.6175,-1.6181,-1.6191,-1.6201,-1.621,-1.6218,-1.6228,-1.6236,-1.6243,-1.625,-1.6262,-1.6271,-1.6278,-1.6287,-1.629,-1.6294,-1.6296,-1.6293,-1.6293,-1.6297,-1.6297,-1.6301,-1.6301,-1.6301,-1.6301,0,-1.6152,-1.6162,-1.6174,-1.6188,-1.6192,-1.6198,-1.621,-1.6217,-1.6224,-1.6234,-1.6237,-1.6249,-1.6259,-1.6269,-1.6283,-1.6287,-1.6296,-1.6299,-1.6293,-1.6293,-1.6295,-1.6294,-1.63,-1.6301,-1.6302,-1.6302,-1.6302,0,-1.6155,-1.6162,-1.6176,-1.6182,-1.6189,-1.6198,-1.6205,-1.6214,-1.6221,-1.6234,-1.6238,-1.6249,-1.6258,-1.6274,-1.6283,-1.6294,-1.6296,-1.6297,-1.6298,-1.6295,-1.6296,-1.6295,-1.6295,-1.6297,-1.6297,-1.6297,-1.6297,0,-1.6159,-1.6163,-1.6173,-1.6183,-1.6191,-1.62,-1.6209,-1.6213,-1.6225,-1.6231,-1.6242,-1.6249,-1.6262,-1.6272,-1.6283,-1.629,-1.6295,-1.6297,-1.6298,-1.6295,-1.6291,-1.6292,-1.6291,-1.6296,-1.6297,-1.6297,-1.6297,-1.6297,-1.6161,-1.6167,-1.6177,-1.6187,-1.6195,-1.6203,-1.6209,-1.6217,-1.6226,-1.6237,-1.6242,-1.6252,-1.6262,-1.6278,-1.6284,-1.6292,-1.6293,-1.6295,-1.6295,-1.6295,-1.6294,-1.6289,-1.6294,-1.6294,-1.6294,-1.6294,-1.6294,0,-1.6165,-1.6172,-1.6181,-1.6193,-1.62,-1.6204,-1.6214,-1.6219,-1.6228,-1.6237,-1.6245,-1.6256,-1.6266,-1.6276,-1.6286,-1.629,-1.6292,-1.6292,-1.6292,-1.6293,-1.6293,-1.6291,-1.629,-1.629,-1.629,-1.629,-1.629,-1.629,-1.6168,-1.6178,-1.6183,-1.6196,-1.6202,-1.6212,-1.6217,-1.6224,-1.6231,-1.6243,-1.6251,-1.6257,-1.6266,-1.6277,-1.6285,-1.6288,-1.6291,-1.629,-1.6293,-1.6293,-1.6293,-1.6293,-1.6292,-1.6291,-1.6291,-1.6292,-1.6292,-1.6292]}]]